Location: Breitenfeld
(46.8500°N, 15.6333°E)
Time: 09:21:30
(UTC+00:00)

SJ-6B - Pass Details

Date: 09 April 2020
Orbit: 509 x 582 km, 97.6° (Epoch: 24 May)

Event Time Altitude Azimuth Distance (km) Brightness Sun altitude
Exits shadow 18:38:27 - 166° (SSE) 2,622 5.9 -10.6°
Reaches altitude 10° 18:40:12 10° 166° (SSE) 1,895 5.2 -10.9°
Maximum altitude 18:44:20 88° 252° (WSW) 590 2.9 -11.5°
Drops below altitude 10° 18:48:30 10° 347° (NNW) 1,910 6.1 -12.2°
Sets 18:50:40 0° 347° (NNW) 2,811 7.0 -12.5°
